New Roads False River Regiona, LA

3:55 AM CDT on July 16, 2019 (GMT -0500)
False River

Weather History for KHZR - May, 2019

Change the Weather History Date:

Tuesday, May 14, 2019

  Actual Average (WUND) Record (WUND)
Temperature  
Mean Temperature 70 °F -  
Max Temperature 82 °F - - (-1)
Min Temperature 57 °F - - (-1)
Cooling Degree Days 4    
Growing Degree Days 20 (Base 50)    
Moisture  
Dew Point 57 °F    
Average Humidity 63    
Maximum Humidity 94    
Minimum Humidity 39    
Precipitation  
Precipitation 0.00 in - - ()
Sea Level Pressure  
Sea Level Pressure 30.01 in    
Wind  
Wind Speed 2 mph (ENE)    
Max Wind Speed 9 mph    
Max Gust Speed -    
Visibility 10 miles    
Events      
Averages and records for this station are not official NWS values.
T = Trace of Precipitation, MM = Missing Value Source: NWS Daily Summary

Daily Weather History Graph

Daily Weather History Graph

Search for Another Location

Airport or City:

Astronomy

May. 14, 2019 Rise Set
Actual Time 6:11 AM CDT 7:53 PM CDT
Civil Twilight 5:45 AM CDT 8:19 PM CDT
Nautical Twilight 5:13 AM CDT 8:51 PM CDT
Astronomical Twilight 4:40 AM CDT 9:24 PM CDT
Moon 3:39 PM CDT (5/14) 3:38 AM CDT (5/14)
Length of Visible Light 14h 33m
Length of Day
13h 41m
Waxing Gibbous, 79% of the Moon is Illuminated
May 14
Waxing Gibbous
May 18
Full
May 26
Last Quarter
Jun 3
New
Jun 10
First Quarter

Hourly Weather History & Observations

Time (CDT) Temp. Heat Index Dew Point Humidity Pressure Visibility Wind Dir Wind Speed Gust Speed Precip Events Conditions
12:15 AM 62.6 °F - 55.4 °F 77% 29.99 in 10.0 mi Calm Calm - N/A   Clear
12:35 AM 62.6 °F - 53.6 °F 72% 29.99 in 10.0 mi ENE 3.5 mph - N/A   Clear
1:16 AM 64.4 °F - 51.8 °F 64% 29.98 in 10.0 mi Calm Calm - N/A   Clear
1:56 AM 62.6 °F - 55.4 °F 77% 29.98 in 10.0 mi Calm Calm - N/A   Clear
2:15 AM 59.0 °F - 55.4 °F 88% 29.97 in 10.0 mi Calm Calm - N/A   Clear
3:36 AM 59.0 °F - 53.6 °F 82% 29.98 in 10.0 mi Calm Calm - N/A   Clear
4:14 AM - - - N/A% - 10.0 mi Calm Calm - N/A   Clear
4:35 AM 59.0 °F - 53.6 °F 82% 30.00 in 10.0 mi North - - N/A   Clear
5:15 AM 57.2 °F - 53.6 °F 88% 30.00 in 10.0 mi Calm Calm - N/A   Clear
5:54 AM 57.2 °F - 53.6 °F 88% 30.01 in 10.0 mi Calm Calm - N/A   Clear
6:16 AM 57.2 °F - 53.6 °F 88% 30.02 in 10.0 mi Calm Calm - N/A   Clear
6:56 AM 57.2 °F - 55.4 °F 94% 30.04 in 10.0 mi Calm Calm - N/A   Clear
7:16 AM 60.8 °F - 55.4 °F 82% 30.04 in 10.0 mi Calm Calm - N/A   Clear
8:15 AM 64.4 °F - 55.4 °F 73% 30.05 in 10.0 mi East 4.6 mph - N/A   Clear
8:36 AM 68.0 °F - 55.4 °F 64% 30.06 in 10.0 mi Calm Calm - N/A   Clear
8:56 AM 69.8 °F - 55.4 °F 60% 30.06 in 1.0 mi East 4.6 mph - N/A   Clear
10:16 AM 75.2 °F - 55.4 °F 50% 30.06 in 10.0 mi NE 4.6 mph - N/A   Clear
11:16 AM 77.0 °F - 53.6 °F 44% 30.05 in 10.0 mi East 6.9 mph - N/A   Clear
11:35 AM 78.8 °F - 53.6 °F 42% 30.05 in 10.0 mi East 4.6 mph - N/A   Clear
11:57 AM 78.8 °F - 55.4 °F 44% 30.05 in 10.0 mi ESE 8.1 mph - N/A   Clear
12:14 PM 78.8 °F - 55.4 °F 44% 30.04 in 10.0 mi ESE 9.2 mph - N/A   Clear
12:55 PM 78.8 °F - 55.4 °F 44% 30.02 in 10.0 mi Calm Calm - N/A   Clear
1:35 PM 80.6 °F 80.8 °F 57.2 °F 45% 30.01 in 10.0 mi NNE 5.8 mph - N/A   Clear
1:56 PM 80.6 °F 80.5 °F 55.4 °F 42% 30.01 in 10.0 mi ENE 8.1 mph - N/A   Clear
2:36 PM 82.4 °F 81.7 °F 55.4 °F 39% 29.99 in 10.0 mi ENE 5.8 mph - N/A   Clear
2:55 PM 82.4 °F 82.0 °F 57.2 °F 42% 29.99 in 10.0 mi NE 6.9 mph - N/A   Clear
3:16 PM 82.4 °F 81.7 °F 55.4 °F 39% 29.99 in 10.0 mi ENE 6.9 mph - N/A   Clear
3:35 PM 82.4 °F 81.7 °F 55.4 °F 39% 29.99 in 10.0 mi SE 4.6 mph - N/A   Clear
3:56 PM 82.4 °F 81.7 °F 55.4 °F 39% 29.99 in 10.0 mi NNE 6.9 mph - N/A   Clear
4:15 PM 82.4 °F 81.7 °F 55.4 °F 39% 29.98 in 10.0 mi East 5.8 mph - N/A   Scattered Clouds
5:15 PM 82.4 °F 81.7 °F 55.4 °F 39% 29.98 in 10.0 mi Calm Calm - N/A   Scattered Clouds
5:34 PM 82.4 °F 81.7 °F 55.4 °F 39% 29.98 in 10.0 mi NNE 5.8 mph - N/A   Clear
6:16 PM 80.6 °F 80.8 °F 57.2 °F 45% 29.97 in 10.0 mi NE 4.6 mph - N/A   Clear
7:14 PM 78.8 °F - 59.0 °F 51% 29.98 in 10.0 mi North 4.6 mph - N/A   Scattered Clouds
8:16 PM 73.4 °F - 62.6 °F 69% 29.99 in 10.0 mi Calm Calm - N/A   Scattered Clouds
8:35 PM 73.4 °F - 64.4 °F 73% 30.00 in 10.0 mi Calm Calm - N/A   Clear
8:54 PM 71.6 °F - 66.2 °F 83% 30.00 in 10.0 mi Calm Calm - N/A   Clear
11:15 PM 66.2 °F - 64.4 °F 94% 30.02 in 10.0 mi Calm Calm - N/A   Clear
11:35 PM 66.2 °F - 64.4 °F 94% 30.02 in 10.0 mi Calm Calm - N/A   Clear
11:54 PM 66.2 °F - 64.4 °F 94% 30.02 in 10.0 mi Calm Calm - N/A   Clear